George/Botha, South Africa

7:34 PM SAST on February 22, 2017 (GMT +0200)
George/Botha

Weather History for 68828 - November, 2012

Change the Weather History Date:

Monday, November 26, 2012

  Actual Average Record
Temperature  
Mean Temperature 59 °F -  
Max Temperature 68 °F 72 °F - ()
Min Temperature 50 °F 56 °F - ()
Degree Days  
Heating Degree Days 6    
Growing Degree Days 9 (Base 50)    
Moisture  
Dew Point 48 °F    
Average Humidity 65    
Maximum Humidity 88    
Minimum Humidity 36    
Precipitation  
Precipitation 0.00 in - - ()
Sea Level Pressure  
Sea Level Pressure 30.28 in    
Wind  
Wind Speed 9 mph ()    
Max Wind Speed 20 mph    
Max Gust Speed -    
Visibility 8.0 miles    
Events      
T = Trace of Precipitation, MM = Missing Value Source: Averaged Metar Reports

Daily Weather History Graph

Daily Weather History Graph

Search for Another Location

Airport or City:

Trip Planner

Search our weather history database for the weather conditions in past years. The results will help you decide how hot, cold, wet, or windy it might be!

Date:

Astronomy

Nov. 26, 2012 Rise Set
Actual Time 5:13 AM SAST 7:22 PM SAST
Civil Twilight 4:45 AM SAST 7:51 PM SAST
Nautical Twilight 4:10 AM SAST 8:25 PM SAST
Astronomical Twilight 3:33 AM SAST 9:03 PM SAST
Moon 5:38 PM SAST (11/26) 3:40 AM SAST (11/26)
Length of Visible Light 15h 06m
Length of Day
14h 09m
Waxing Gibbous, 96% of the Moon is Illuminated
Nov 26
Waxing Gibbous
Nov 28
Full
Dec 6
Last Quarter
Dec 13
New
Dec 20
First Quarter

Hourly Weather History & Observations

Time (SAST) Temp. Dew Point Humidity Pressure Visibility Wind Dir Wind Speed Gust Speed Precip Events Conditions
12:00 AM 51.8 °F 46.4 °F 82% 30.27 in 6.2 mi NW 5.8 mph - N/A   Partly Cloudy
1:00 AM 55.4 °F 48.2 °F 77% 30.24 in 6.2 mi WNW 10.4 mph - N/A   Mostly Cloudy
2:00 AM 53 °F 46 °F 68% 30.25 in 12 mi West 11.5 mph - -  
2:00 AM 53.6 °F 46.4 °F 77% 30.24 in - West 10.4 mph - N/A   Clear
3:00 AM 51.8 °F 44.6 °F 76% 30.24 in - WNW 10.4 mph - N/A   Clear
4:00 AM 51.8 °F 42.8 °F 71% 30.24 in - NW 9.2 mph - N/A   Clear
5:00 AM 51 °F 44 °F 71% 30.25 in 12 mi NW 10.4 mph - -  
5:00 AM 51.8 °F 44.6 °F 76% 30.24 in - NW 9.2 mph - N/A   Clear
6:00 AM 51.8 °F 44.6 °F 76% 30.24 in - WNW 6.9 mph - N/A   Clear
7:00 AM 57.2 °F 44.6 °F 63% 30.24 in - WNW 13.8 mph - N/A   Clear
8:00 AM 61 °F 42 °F 38% 30.26 in 12 mi WNW 16.1 mph - -  
8:00 AM 60.8 °F 42.8 °F 52% 30.24 in - WNW 16.1 mph - N/A   Clear
9:00 AM 64.4 °F 42.8 °F 45% 30.24 in 6.2 mi West 15.0 mph - N/A   Partly Cloudy
10:00 AM 66.2 °F 42.8 °F 43% 30.24 in 6.2 mi West 13.8 mph - N/A   Partly Cloudy
11:00 AM 69 °F 48 °F 36% 30.25 in 12 mi WSW 12.7 mph - -   Scattered Clouds
11:00 AM 68.0 °F 46.4 °F 46% 30.27 in 6.2 mi SW 12.7 mph - N/A   Partly Cloudy
12:00 PM 66.2 °F 48.2 °F 52% 30.27 in 6.2 mi SSW 19.6 mph - N/A   Scattered Clouds
1:00 PM 68.0 °F 48.2 °F 49% 30.27 in 6.2 mi SSW 16.1 mph - N/A   Partly Cloudy
2:00 PM 66 °F 51 °F 49% 30.29 in 12 mi SSW 15.0 mph - -   Scattered Clouds
2:00 PM 66.2 °F 50.0 °F 56% 30.27 in 6.2 mi SSW 15.0 mph - N/A   Partly Cloudy
3:00 PM 66.2 °F 50.0 °F 56% 30.27 in 6.2 mi South 11.5 mph - N/A   Scattered Clouds
4:00 PM 66.2 °F 51.8 °F 60% 30.27 in 6.2 mi SSW 13.8 mph - N/A   Partly Cloudy
5:00 PM 63 °F 52 °F 58% 30.31 in 12 mi SW 8.1 mph - -   Mostly Cloudy
5:00 PM 62.6 °F 51.8 °F 68% 30.30 in 6.2 mi SW 8.1 mph - N/A   Scattered Clouds
6:00 PM 62.6 °F 51.8 °F 68% 30.30 in 6.2 mi SW 6.9 mph - N/A   Mostly Cloudy
7:00 PM 60.8 °F 53.6 °F 77% 30.33 in 6.2 mi SW 5.8 mph - N/A   Scattered Clouds
8:00 PM 59 °F 53 °F 75% 30.34 in 12 mi SSW 3.5 mph - -   Partly Cloudy
8:00 PM 59.0 °F 53.6 °F 82% 30.33 in 6.2 mi SSW 3.5 mph - N/A   Partly Cloudy
9:00 PM 57.2 °F 51.8 °F 82% 30.36 in - NNE 3.5 mph - N/A   Clear
10:00 PM 55.4 °F 51.8 °F 88% 30.36 in - NNE 3.5 mph - N/A   Clear
11:00 PM 53.6 °F 50.0 °F 88% 30.36 in 6.2 mi North 2.3 mph - N/A   Partly Cloudy